{"data":{"norad_id":67638,"intl_designator":"2026-020X","name":"STARLINK-36599","alt_names":[],"object_type":"PAYLOAD","status":"ACTIVE","operator":null,"country":"US","launch_date":"2026-01-30","launch_site_code":"AFETR","launch_vehicle":null,"mission":null,"orbit_class":"UNKNOWN","rcs_meters":null,"size_class":null,"mass_kg":null,"dimensions":null,"purposes":["comms"],"wikipedia_slug":null,"has_3d_model":false,"image_url":null,"decayed_at":null,"tle_current":{"epoch":"2026-05-25T03:46:20.606880Z","epoch_age_seconds":72195,"freshness":"FRESH","line1":"1 67638U 26020X   26145.15718295  .00031806  00000+0  11596-2 0  9997","line2":"2 67638  43.0029  68.3242 0001173 262.6779  97.3939 15.27601832 17807","mean_motion":15.27601832,"eccentricity":0.0001173,"inclination_deg":43.0029,"raan_deg":68.3242,"arg_perigee_deg":262.6779,"mean_anomaly_deg":97.3939,"bstar":0.0011596,"rev_number":1780,"period_min":94.265401483232,"perigee_km":482.17891449529,"apogee_km":483.78853341713,"semimajor_km":6861.1207239562,"source":"CELESTRAK","updated_at":"2026-05-25T13:38:21.654021Z"}}}